| time (UTC) | temp C | wind direction | speed KPH | gust KPH | rain 1hr cm | rain 24hr cm | rain mn cm | humidity % | barometer mb |
| 20260905234532 | 13 | 265 | 0.0 | 3.2 | 0.00 | 0.18 | 0.00 | 72 | 1022.7 |
| 20260905233040 | 14 | 265 | 0.0 | 6.4 | 0.00 | 0.18 | 0.00 | 71 | 1022.5 |
| 20260905231555 | 14 | 259 | 1.6 | 8.0 | 0.00 | 0.18 | 0.00 | 70 | 1022.4 |
| 20260905230109 | 15 | 238 | 0.0 | 4.8 | 0.00 | 0.18 | 0.00 | 69 | 1022.4 |
| 20260905224519 | 15 | 238 | 0.0 | 4.8 | 0.00 | 0.18 | 0.00 | 67 | 1022.2 |
| 20260905223035 | 15 | 231 | 0.0 | 4.8 | 0.00 | 0.18 | 0.00 | 66 | 1022.2 |
| 20260905221555 | 15 | 229 | 3.2 | 8.0 | 0.00 | 0.18 | 0.00 | 65 | 1022.1 |
| 20260905220025 | 16 | 236 | 0.0 | 8.0 | 0.00 | 0.18 | 0.00 | 64 | 1022.0 |
| 20260905214505 | 16 | 209 | 1.6 | 8.0 | 0.00 | 0.18 | 0.18 | 62 | 1021.9 |
| 20260905213023 | 16 | 257 | 1.6 | 6.4 | 0.00 | 0.18 | 0.18 | 61 | 1021.9 |
| 20260905211518 | 16 | 256 | 3.2 | 9.7 | 0.00 | 0.18 | 0.18 | 60 | 1021.6 |
| 20260905210108 | 16 | 223 | 6.4 | 12.9 | 0.00 | 0.18 | 0.18 | 59 | 1021.5 |
| 20260905204537 | 16 | 242 | 4.8 | 11.3 | 0.00 | 0.18 | 0.18 | 59 | 1021.4 |
| 20260905203131 | 16 | 246 | 3.2 | 16.1 | 0.00 | 0.18 | 0.18 | 60 | 1021.2 |
| 20260905201513 | 16 | 235 | 3.2 | 14.5 | 0.00 | 0.18 | 0.18 | 60 | 1021.0 |
| 20260905200101 | 16 | 232 | 1.6 | 8.0 | 0.00 | 0.18 | 0.18 | 60 | 1020.8 |
| 20260905194535 | 17 | 220 | 3.2 | 8.0 | 0.00 | 0.18 | 0.18 | 59 | 1020.6 |
| 20260905193029 | 17 | 234 | 1.6 | 11.3 | 0.00 | 0.18 | 0.18 | 58 | 1020.3 |
| 20260905191549 | 17 | 269 | 4.8 | 12.9 | 0.00 | 0.18 | 0.18 | 58 | 1020.2 |
| 20260905190054 | 17 | 270 | 4.8 | 11.3 | 0.00 | 0.18 | 0.18 | 59 | 1020.0 |
| 20260905184514 | 18 | 244 | 1.6 | 8.0 | 0.00 | 0.18 | 0.18 | 57 | 1019.9 |
| 20260905183051 | 18 | 280 | 4.8 | 11.3 | 0.00 | 0.18 | 0.18 | 55 | 1019.7 |
| 20260905181540 | 18 | 267 | 1.6 | 6.4 | 0.00 | 0.18 | 0.18 | 54 | 1019.6 |
| 20260905180001 | 19 | 262 | 1.6 | 11.3 | 0.00 | 0.18 | 0.18 | 52 | 1019.2 |
| 20260905174552 | 20 | 276 | 6.4 | 14.5 | 0.00 | 0.18 | 0.18 | 50 | 1019.0 |
| 20260905173051 | 20 | 254 | 4.8 | 14.5 | 0.00 | 0.18 | 0.18 | 49 | 1018.7 |
| 20260905171539 | 20 | 348 | 11.3 | 24.1 | 0.00 | 0.18 | 0.18 | 47 | 1018.6 |
| 20260905170039 | 21 | 300 | 6.4 | 22.5 | 0.00 | 0.18 | 0.18 | 48 | 1018.4 |
| 20260905164512 | 21 | 311 | 4.8 | 22.5 | 0.00 | 0.18 | 0.18 | 47 | 1018.0 |
| 20260905163101 | 21 | 314 | 8.0 | 20.9 | 0.00 | 0.18 | 0.18 | 47 | 1017.8 |
| 20260905161535 | 21 | 280 | 8.0 | 24.1 | 0.00 | 0.18 | 0.18 | 47 | 1017.6 |
| 20260905160014 | 22 | 305 | 6.4 | 14.5 | 0.00 | 0.18 | 0.18 | 46 | 1017.4 |
| 20260905154556 | 22 | 284 | 8.0 | 22.5 | 0.00 | 0.18 | 0.18 | 46 | 1017.3 |
| 20260905153039 | 22 | 296 | 8.0 | 17.7 | 0.00 | 0.18 | 0.18 | 46 | 1017.2 |
| 20260905151506 | 22 | 300 | 12.9 | 29.0 | 0.00 | 0.18 | 0.18 | 44 | 1017.1 |
| 20260905150017 | 22 | 309 | 14.5 | 27.4 | 0.00 | 0.18 | 0.18 | 44 | 1017.1 |
| 20260905144506 | 22 | 257 | 8.0 | 25.7 | 0.00 | 0.18 | 0.18 | 46 | 1017.1 |
| 20260905143048 | 22 | 303 | 8.0 | 25.7 | 0.00 | 0.18 | 0.18 | 47 | 1017.1 |
| 20260905141602 | 22 | 269 | 11.3 | 25.7 | 0.00 | 0.18 | 0.18 | 45 | 1017.0 |
| 20260905140108 | 22 | 268 | 14.5 | 22.5 | 0.00 | 0.18 | 0.18 | 45 | 1017.0 |
| 20260905134602 | 22 | 197 | 14.5 | 27.4 | 0.00 | 0.18 | 0.18 | 48 | 1017.0 |
| 20260905133004 | 21 | 225 | 9.7 | 25.7 | 0.00 | 0.18 | 0.18 | 50 | 1017.1 |
| 20260905131509 | 21 | 251 | 9.7 | 25.7 | 0.00 | 0.18 | 0.18 | 50 | 1017.1 |
| 20260905130041 | 21 | 333 | 9.7 | 33.8 | 0.00 | 0.18 | 0.18 | 50 | 1017.1 |
| 20260905124555 | 21 | 242 | 12.9 | 25.7 | 0.00 | 0.18 | 0.18 | 47 | 1017.2 |
| 20260905123035 | 22 | 242 | 14.5 | 35.4 | 0.00 | 0.18 | 0.18 | 47 | 1017.3 |
| 20260905121510 | 22 | 229 | 16.1 | 27.4 | 0.00 | 0.18 | 0.18 | 46 | 1017.4 |
| 20260905120020 | 22 | 243 | 11.3 | 32.2 | 0.00 | 0.18 | 0.18 | 50 | 1017.4 |
| 20260905114512 | 21 | 258 | 12.9 | 30.6 | 0.00 | 0.18 | 0.18 | 53 | 1017.4 |
| 20260905113026 | 21 | 246 | 9.7 | 30.6 | 0.00 | 0.18 | 0.18 | 57 | 1017.5 |
| 20260905111515 | 20 | 250 | 11.3 | 20.9 | 0.00 | 0.18 | 0.18 | 56 | 1017.6 |
| 20260905110004 | 20 | 301 | 8.0 | 24.1 | 0.00 | 0.18 | 0.18 | 58 | 1017.6 |
| 20260905104518 | 20 | 241 | 9.7 | 25.7 | 0.00 | 0.18 | 0.18 | 57 | 1017.5 |
| 20260905103027 | 20 | 241 | 8.0 | 33.8 | 0.00 | 0.18 | 0.18 | 61 | 1017.6 |
| 20260905101558 | 20 | 261 | 8.0 | 20.9 | 0.00 | 0.18 | 0.18 | 62 | 1017.5 |
| 20260905100057 | 19 | 286 | 9.7 | 30.6 | 0.00 | 0.18 | 0.18 | 63 | 1017.6 |
| 20260905094511 | 18 | 222 | 8.0 | 30.6 | 0.00 | 0.18 | 0.18 | 66 | 1017.6 |
| 20260905093129 | 18 | 210 | 9.7 | 29.0 | 0.00 | 0.18 | 0.18 | 66 | 1017.7 |
| 20260905091547 | 19 | 254 | 6.4 | 16.1 | 0.00 | 0.18 | 0.18 | 66 | 1017.8 |
| 20260905090058 | 18 | 203 | 9.7 | 20.9 | 0.00 | 0.18 | 0.18 | 66 | 1017.7 |
| 20260905084548 | 18 | 249 | 4.8 | 22.5 | 0.00 | 0.18 | 0.18 | 70 | 1017.6 |
| 20260905083114 | 18 | 254 | 9.7 | 25.7 | 0.00 | 0.18 | 0.18 | 71 | 1017.8 |
| 20260905081604 | 17 | 209 | 12.9 | 29.0 | 0.00 | 0.18 | 0.18 | 72 | 1017.6 |
| 20260905080036 | 17 | 229 | 9.7 | 32.2 | 0.00 | 0.18 | 0.18 | 75 | 1017.4 |
| 20260905074600 | 17 | 228 | 9.7 | 20.9 | 0.00 | 0.18 | 0.18 | 77 | 1017.3 |
| 20260905073029 | 17 | 192 | 9.7 | 29.0 | 0.00 | 0.18 | 0.18 | 77 | 1017.1 |
| 20260905071529 | 16 | 224 | 11.3 | 25.7 | 0.00 | 0.18 | 0.18 | 80 | 1016.9 |
| 20260905070050 | 16 | 257 | 11.3 | 30.6 | 0.00 | 0.18 | 0.18 | 82 | 1017.2 |
| 20260905064508 | 16 | 225 | 12.9 | 30.6 | 0.00 | 0.18 | 0.18 | 84 | 1017.1 |
| 20260905063028 | 15 | 217 | 11.3 | 24.1 | 0.00 | 0.18 | 0.18 | 88 | 1017.0 |
| 20260905061610 | 15 | 223 | 8.0 | 17.7 | 0.00 | 0.18 | 0.18 | 90 | 1016.9 |
| 20260905060038 | 14 | 242 | 4.8 | 17.7 | 0.00 | 0.18 | 0.18 | 90 | 1016.6 |
| 20260905054532 | 14 | 210 | 4.8 | 14.5 | 0.00 | 0.18 | 0.18 | 91 | 1016.5 |
| 20260905053107 | 14 | 217 | 4.8 | 12.9 | 0.00 | 0.18 | 0.18 | 91 | 1016.3 |
| 20260905051522 | 14 | 236 | 4.8 | 8.0 | 0.00 | 0.18 | 0.18 | 91 | 1016.1 |
| 20260905050104 | 14 | 227 | 1.6 | 9.7 | 0.05 | 0.18 | 0.18 | 91 | 1015.8 |
| 20260905044527 | 14 | 304 | 0.0 | 4.8 | 0.08 | 0.18 | 0.18 | 91 | 1015.5 |
| 20260905043004 | 14 | 305 | 1.6 | 6.4 | 0.13 | 0.18 | 0.18 | 90 | 1015.5 |
| 20260905041504 | 15 | 242 | 3.2 | 14.5 | 0.18 | 0.18 | 0.18 | 89 | 1014.7 |
| 20260905040058 | 15 | 221 | 4.8 | 11.3 | 0.15 | 0.15 | 0.15 | 89 | 1014.5 |
| 20260905034541 | 15 | 192 | 3.2 | 9.7 | 0.10 | 0.10 | 0.10 | 86 | 1015.0 |
| 20260905033104 | 15 | 217 | 8.0 | 17.7 | 0.05 | 0.05 | 0.05 | 83 | 1015.1 |
| 20260905031541 | 16 | 261 | 6.4 | 16.1 | 0.00 | 0.00 | 0.00 | 79 | 1015.1 |
| 20260905030023 | 16 | 228 | 9.7 | 22.5 | 0.00 | 0.00 | 0.00 | 78 | 1015.0 |
| 20260905024600 | 16 | 250 | 4.8 | 14.5 | 0.00 | 0.00 | 0.00 | 77 | 1015.1 |
| 20260905023051 | 16 | 279 | 6.4 | 14.5 | 0.00 | 0.00 | 0.00 | 76 | 1014.3 |
| 20260905021505 | 16 | 238 | 6.4 | 14.5 | 0.00 | 0.00 | 0.00 | 75 | 1014.4 |
| 20260905020034 | 16 | 232 | 0.0 | 11.3 | 0.00 | 0.00 | 0.00 | 75 | 1014.0 |
| 20260905014524 | 17 | 263 | 6.4 | 14.5 | 0.00 | 0.00 | 0.00 | 70 | 1014.2 |
| 20260905013102 | 18 | 360 | 8.0 | 14.5 | 0.00 | 0.00 | 0.00 | 65 | 1013.8 |
| 20260905011612 | 18 | 306 | 6.4 | 14.5 | 0.00 | 0.00 | 0.00 | 66 | 1013.5 |
| 20260905010107 | 18 | 252 | 4.8 | 19.3 | 0.00 | 0.00 | 0.00 | 67 | 1013.6 |
| 20260905004507 | 18 | 252 | 8.0 | 14.5 | 0.00 | 0.00 | 0.00 | 67 | 1013.6 |
| 20260905003109 | 18 | 296 | 6.4 | 16.1 | 0.00 | 0.00 | 0.00 | 66 | 1013.4 |
| 20260905001537 | 18 | 298 | 6.4 | 19.3 | 0.00 | 0.00 | 0.00 | 64 | 1013.2 |
| 20260905000027 | 18 | 307 | 6.4 | 24.1 | 0.00 | 0.00 | 0.00 | 66 | 1013.1 |